{"data":{"norad_id":62681,"intl_designator":"2025-009CA","name":"FLOCK 4G-17","alt_names":[],"object_type":"PAYLOAD","status":"ACTIVE","operator":null,"country":"US","launch_date":"2025-01-14","launch_site_code":"AFWTR","launch_vehicle":null,"mission":null,"orbit_class":"UNKNOWN","rcs_meters":null,"size_class":null,"mass_kg":null,"dimensions":null,"purposes":["earth_obs"],"wikipedia_slug":null,"has_3d_model":false,"image_url":null,"decayed_at":null,"tle_current":{"epoch":"2026-05-24T18:34:20.670240Z","epoch_age_seconds":94928,"freshness":"FRESH","line1":"1 62681U 25009CA  26144.77385035  .00009725  00000+0  34778-3 0  9998","line2":"2 62681  97.3926 226.2884 0005796  69.8875 290.2988 15.28995115132979","mean_motion":15.28995115,"eccentricity":0.0005796,"inclination_deg":97.3926,"raan_deg":226.2884,"arg_perigee_deg":69.8875,"mean_anomaly_deg":290.2988,"bstar":0.00034778,"rev_number":13297,"period_min":94.179502986836,"perigee_km":474.84071173689,"apogee_km":482.78929049658,"semimajor_km":6856.9520011167,"source":"CELESTRAK","updated_at":"2026-05-25T13:38:13.343583Z"}}}